Location: Saratoga Springs
(43.0831°N, 73.7850°W)
Time: 03:27:11
(UTC-04:00)

Vanguard 3 - Pass Details

Date: 30 April 2024
Orbit: 509 x 3232 km, 33.3° (Epoch: 26 May)

Event Time Altitude Azimuth Distance (km) Brightness Sun altitude
Rises 21:39:16 0° 174° (S) 6,565 11.4 -16.9°
Enters shadow 21:40:19 - 172° (S) 6,470 11.3 -17.0°
Exits shadow 22:06:12 - 96° (E) 6,574 11.3 -20.4°
Sets 22:09:58 0° 88° (E) 6,960 11.5 -20.9°
